www.pogodaiklimat.ru

Погода и климат >> Архив погоды >> Италия >> Казале-Монферрато


ПОГОДА в Казале-Монферрато

  • Прогноз погоды в Казале-Монферрато
  • Монитор погоды в Казале-Монферрато

АРХИВ ПОГОДЫ в Казале-Монферрато

Время (UTC), дата Ветер
(напр.,м/с)
 
Видим.   Явления Облачность Т
(С)
Тd
(С)
f
(%)
Тe
(С)
Тes
(С)
Комфортность P
(гПа)
Po
(гПа)
Тmin
(С)
Tmax
(С)
R
(мм)
R24
(мм)
S
(см)
19 11.06 Ю 1 н/о н/о +20.8 +16.3 75 +25 +25 комфорт 1008.6 995.2
20 11.06 З 1 н/о н/о +19.1 +16.1 83 +22 +22 комфорт 1008.7 995.3
21 11.06 З 2 н/о н/о +18.4 +16.3 88 +20 +20 1008.7 995.2
22 11.06 З 1 н/о н/о +18.6 +16.9 90 +21 +21 комфорт 1008.6 995.1
23 11.06 штиль 0 н/о н/о +18.4 +16.8 90 +19 +19 1008.4 994.9
00 12.06 З 1 н/о н/о +18.4 +16.8 90 +20 +20 1008.1 994.6
01 12.06 З 1 н/о н/о +18.2 +16.6 90 +20 +20 1008.2 994.7
02 12.06 штиль 0 н/о н/о +18.0 +16.4 90 +18 +18 1008.2 994.7
03 12.06 штиль 0 н/о н/о +17.6 +16.2 91 +18 +18 1007.9 994.4
04 12.06 штиль 0 н/о н/о +17.2 +15.8 91 +17 +17 1007.8 994.3
05 12.06 З 1 н/о н/о +17.0 +15.6 91 +18 +18 1008.0 994.5
06 12.06 ЮВ 2 н/о н/о +20.4 +18.8 91 +25 +25 комфорт 1008.1 994.7 +16.7 402
07 12.06 Ю 2 н/о н/о +21.2 +17.3 78 +25 +25 комфорт 1008.2 994.9
08 12.06 ЮЗ 2 н/о н/о +22.7 +16.6 68 +27 +27 душно 1008.9 995.6
09 12.06 Ю 4 н/о н/о +23.9 +17.3 67 +28 +28 душно 1008.7 995.5
10 12.06 ЮВ 6 н/о н/о +25.0 +17.1 62 +29 +29 душно 1009.0 995.8
11 12.06 Ю 7 н/о н/о +25.5 +17.4 61
12 12.06 Ю 7 н/о н/о +25.6 +15.5 54
13 12.06 Ю 6 н/о н/о +25.6 +15.5 54
14 12.06 Ю 7 н/о н/о +25.3 +14.7 52
15 12.06 Ю 7 н/о н/о +25.1 +13.9 50
16 12.06 Ю 8 н/о н/о +24.4 +11.7 45
17 12.06 Ю 7 н/о н/о +23.7 +10.0 42
18 12.06 Ю 4 н/о н/о +22.1 +9.6 45 +25.9
19 12.06 Ю 3 н/о н/о +18.7 +9.7 56 +20 +20 1011.0 997.5
20 12.06 Ю 2 н/о н/о +17.3 +10.1 63 +18 +18 1011.6 998.1
21 12.06 ЮЗ 1 н/о н/о +16.2 +10.5 69 +17 +17 1012.4 998.8
22 12.06 штиль 0 н/о н/о +15.1 +10.0 72 +15 +15 1012.9 999.2
23 12.06 Ю 1 н/о н/о +15.1 +10.7 75 +16 +16 1013.0 999.3
00 13.06 ЮЗ 1 н/о н/о +13.9 +11.6 86 +15 +15 1013.2 999.5
01 13.06 ЮЗ 1 н/о н/о +13.4 +11.8 90 +14 +14 1013.4 999.6
02 13.06 З 1 н/о н/о +13.4 +11.9 91 +14 +14 1013.5 999.7
03 13.06 ЮЗ 1 н/о н/о +12.1 +10.5 90 +13 +13 1013.4 999.6
04 13.06 СЗ 1 н/о н/о +12.1 +10.8 92 +13 +13 1013.9 1000.1
05 13.06 З 1 н/о н/о +13.2 +12.1 93 +14 +14 1014.6 1000.8
06 13.06 З 1 н/о н/о +16.3 +14.8 91 +18 +18 1014.7 1001.1 +11.3 501
07 13.06 ЮЗ 2 н/о н/о +18.4 +16.1 86 +20 +20 1015.0 1001.5
08 13.06 ЮЗ 3 н/о н/о +20.1 +15.7 76 +23 +23 комфорт 1015.3 1001.8
09 13.06 З 2 н/о н/о +21.5 +15.0 66 +25 +25 комфорт 1015.4 1002.0
10 13.06 Ю 2 н/о н/о +22.9 +15.9 65 +27 +27 душно 1015.4 1002.0
11 13.06 ЮЗ 2 н/о н/о +24.5 +16.4 61 +28 +28 душно 1015.2 1001.9
12 13.06 Ю 3 н/о н/о +25.9 +12.0 42
13 13.06 СЗ 1 н/о н/о +26.5 +12.5 42
14 13.06 Ю 3 н/о н/о +26.6 +13.6 45
15 13.06 Ю 2 н/о н/о +26.5 +13.2 44
16 13.06 ЮЗ 3 н/о н/о +26.3 +11.6 40
17 13.06 Ю 4 н/о н/о +25.1 +8.1 34
18 13.06 Ю 4 н/о н/о +24.1 +5.9 31 +27.3
19 13.06 ЮЗ 2 н/о н/о +22.0 +5.8 35
20 13.06 З 2 н/о н/о +18.9 +5.3 41 +20 +20 1017.0 1003.4
21 13.06 З 2 н/о н/о +17.3 +4.5 43 +18 +18 1017.6 1003.9
22 13.06 СЗ 1 н/о н/о +15.5 +5.0 50 +17 +17 1018.2 1004.5
23 13.06 З 1 н/о н/о +14.2 +4.7 53 +15 +15 1018.7 1004.9
00 14.06 З 1 н/о н/о +14.1 +6.6 61 +15 +15 1018.5 1004.7
01 14.06 ЮЗ 1 н/о н/о +12.9 +7.1 68 +14 +14 1018.9 1005.0
02 14.06 СВ 1 н/о н/о +11.7 +7.8 77 +12 +12 1017.8 1003.9
03 14.06 З 1 н/о н/о +13.0 +10.1 83 +14 +14 1018.1 1004.2
04 14.06 ЮЗ 3 н/о н/о +15.2 +11.0 76 +15 +15 1018.9 1005.1
05 14.06 З 1 н/о н/о +15.3 +12.9 86 +17 +17 1018.9 1005.1
06 14.06 ЮЗ 1 н/о н/о +18.0 +15.0 83 +20 +20 1018.6 1005.0 +11.3 201
07 14.06 З 1 н/о н/о +21.1 +15.3 69 +24 +24 комфорт 1018.4 1004.9
08 14.06 С 2 н/о н/о +22.7 +13.7 57 +26 +26 жарко 1018.3 1004.9
09 14.06 СЗ 3 н/о н/о +23.2 +14.4 58 +27 +27 душно 1018.7 1005.3
10 14.06 С 3 н/о н/о +24.8 +14.2 52 +27 +27 жарко 1018.3 1005.0
11 14.06 С 4 н/о н/о +25.7 +17.0 59 +30 +30 душно 1017.9 1004.6
12 14.06 С 4 н/о н/о +26.8 +16.4 53
13 14.06 СВ 2 н/о н/о +27.5 +14.4 45
14 14.06 В 2 н/о н/о +27.5 +15.5 48
15 14.06 В 2 н/о н/о +28.2 +17.7 53
16 14.06 СВ 2 н/о н/о +28.1 +16.6 50
17 14.06 СВ 1 н/о н/о +27.4 +16.3 51
18 14.06 СВ 2 н/о н/о +23.1 +19.0 78 +28.8 0.6
19 14.06 З 2 н/о н/о +22.5 +19.6 84
20 14.06 СЗ 2 н/о н/о +22.5 +18.6 79
21 14.06 С 2 н/о н/о +22.4 +19.7 85 +28 +28 душно 1015.3 1001.9
22 14.06 С 2 н/о н/о +21.9 +19.2 85 +27 +27 душно 1014.8 1001.4
23 14.06 С 2 н/о н/о +21.1 +18.6 86 +25 +25 комфорт 1014.9 1001.5
00 15.06 СВ 1 н/о н/о +18.8 +16.7 88 +21 +21 комфорт 1014.1 1000.6
01 15.06 З 1 н/о н/о +18.5 +16.9 90 +20 +20 1014.4 1000.9
02 15.06 СЗ 1 н/о н/о +18.1 +16.7 92 +20 +20 1014.2 1000.6
03 15.06 З 1 н/о н/о +17.7 +16.3 92 +19 +19 1014.1 1000.5
04 15.06 З 2 н/о н/о +17.2 +15.8 91 +18 +18 1014.3 1000.7
05 15.06 ЮЗ 2 н/о н/о +17.7 +16.5 93 +18 +18 1014.6 1001.0
06 15.06 З 1 н/о н/о +18.7 +17.5 93 +21 +21 комфорт 1014.7 1001.2 +17.1 1
07 15.06 штиль 0 н/о н/о +21.7 +20.1 91 +27 +27 душно 1014.9 1001.5
08 15.06 З 1 н/о н/о +24.1 +21.0 83 +30 +30 очень
душно
1015.0 1001.7
09 15.06 Ю 2 н/о н/о +24.7 +18.8 70 +30 +30 очень
душно
1015.0 1001.7
10 15.06 Ю 3 н/о н/о +25.6 +20.1 72 +32 +32 очень
душно
1014.6 1001.4
11 15.06 СВ 1 н/о н/о +26.8 +20.3 68
12 15.06 ЮЗ 2 н/о н/о +27.5 +19.8 63
13 15.06 Ю 2 н/о н/о +27.8 +20.3 64
14 15.06 ЮЗ 2 н/о н/о +28.7 +21.2 64
15 15.06 ЮВ 6 н/о н/о +27.6 +21.1 68
16 15.06 Ю 6 н/о н/о +27.3 +21.1 69
17 15.06 Ю 6 н/о н/о +25.2 +19.0 69
18 15.06 Ю 5 н/о н/о +23.6 +18.8 74 +29.0 0.2
19 15.06 ЮЗ 2 н/о н/о +22.4 +18.9 81
20 15.06 СВ 2 н/о н/о +21.2 +16.5 75
21 15.06 З 2 н/о н/о +19.7 +16.1 80 +23 +23 комфорт 1014.1 1000.6
22 15.06 СЗ 1 н/о н/о +18.8 +16.3 85 +22 +22 комфорт 1014.7 1001.2
23 15.06 ЮЗ 2 н/о н/о +17.1 +15.2 89 +18 +18 1014.8 1001.2
00 16.06 штиль 0 н/о н/о +16.0 +14.3 90 +16 +16 1014.9 1001.2
01 16.06 З 1 н/о н/о +15.6 +14.1 91 +16 +16 1014.9 1001.2
02 16.06 З 1 н/о н/о +15.0 +13.6 91 +15 +15 1014.5 1000.8
03 16.06 З 1 н/о н/о +14.4 +13.1 92 +15 +15 1014.5 1000.8
04 16.06 З 1 н/о н/о +13.8 +12.5 92 +15 +15 1014.7 1000.9
05 16.06 ЮЗ 1 н/о н/о +14.5 +13.3 93 +16 +16 1015.0 1001.3
06 16.06 штиль 0 н/о н/о +18.8 +17.6 93 +20 +20 1015.2 1001.7 +13.6 0
07 16.06 ЮВ 2 н/о н/о +20.5 +18.7 89 +25 +25 комфорт 1015.5 1002.0
08 16.06 С 1 н/о н/о +22.7 +18.6 78 +28 +28 душно 1015.4 1002.0
09 16.06 З 1 н/о н/о +24.5 +16.9 63 +28 +28 душно 1015.2 1001.9
10 16.06 СЗ 3 н/о н/о +25.5 +15.4 54 +29 +29 душно 1015.1 1001.9
11 16.06 ЮЗ 1 н/о н/о +27.3 +18.5 59
12 16.06 Ю 1 н/о н/о +28.8 +16.3 47
13 16.06 ЮЗ 2 н/о н/о +29.4 +15.1 42
14 16.06 ЮВ 2 н/о н/о +29.7 +16.1 44
15 16.06 ЮЗ 1 н/о н/о +29.7 +13.4 37
16 16.06 ЮЗ 1 н/о н/о +29.7 +11.3 32
17 16.06 штиль 0 н/о н/о +30.4 +13.6 36
18 16.06 В 2 н/о н/о +27.8 +14.7 45 +31.0
19 16.06 З 1 н/о н/о +26.9 +14.6 47
20 16.06 З 2 н/о н/о +22.1 +13.4 58
21 16.06 З 1 н/о н/о +19.9 +12.1 61
22 16.06 ЮЗ 1 н/о н/о +18.4 +12.6 69
23 16.06 СЗ 1 н/о н/о +17.0 +12.7 76 +19 +19 1014.2 1000.6
00 17.06 З 2 н/о н/о +17.5 +13.9 79 +18 +18 1014.2 1000.6
01 17.06 З 1 н/о н/о +16.3 +12.8 80 +18 +18 1014.6 1001.0
02 17.06 З 1 н/о н/о +15.8 +13.6 87 +16 +16 1014.9 1001.2
03 17.06 З 1 н/о н/о +16.8 +14.2 85 +18 +18 1014.7 1001.1
04 17.06 СЗ 1 н/о н/о +15.5 +12.2 81 +17 +17 1015.2 1001.5
05 17.06 С 1 н/о н/о +18.6 +16.7 89 +21 +21 комфорт 1015.2 1001.7
06 17.06 С 2 н/о н/о +22.1 +16.3 70 +26 +26 душно 1015.7 1002.3 +15.1 204
07 17.06 С 3 н/о н/о +22.2 +15.9 67 +26 +26 душно 1016.1 1002.7
08 17.06 С 1 н/о н/о +23.8 +17.5 68 +28 +28 душно 1016.4 1003.1
09 17.06 С 2 н/о н/о +24.7 +18.3 68 +29 +29 душно 1016.5 1003.2
10 17.06 СВ 2 н/о н/о +26.2 +20.0 69 +32 +32 очень
душно
1016.4 1003.2
11 17.06 ЮВ 3 н/о н/о +27.4 +21.2 69
12 17.06 СВ 2 н/о н/о +28.7 +22.4 69
13 17.06 СВ 2 н/о н/о +29.2 +21.6 64
14 17.06 С 2 н/о н/о +29.4 +19.7 56
15 17.06 В 3 н/о н/о +29.7 +19.1 53
16 17.06 С 2 н/о н/о +29.8 +19.7 55
17 17.06 В 2 н/о н/о +29.4 +19.7 56
18 17.06 СЗ 1 н/о н/о +30.1 +19.7 54 +30.4
19 17.06 СЗ 1 н/о н/о +26.0 +17.8 61
20 17.06 ЮЗ 2 н/о н/о +24.1 +18.2 70
21 17.06 штиль 0 н/о н/о +22.3 +17.4 74
22 17.06 штиль 0 н/о н/о +21.0 +17.7 81
23 17.06 СЗ 2 н/о н/о +20.1 +18.0 88 +24 +24 комфорт 1015.3 1001.8
00 18.06 штиль 0 н/о н/о +20.8 +19.0 89 +25 +25 комфорт 1015.3 1001.9
01 18.06 СЗ 1 н/о н/о +21.6 +19.8 89 +27 +27 душно 1015.1 1001.7
02 18.06 СЗ 2 н/о н/о +21.1 +19.3 89 +26 +26 душно 1015.4 1002.0
03 18.06 СЗ 1 н/о н/о +20.8 +18.5 87 +26 +26 душно 1015.5 1002.0
04 18.06 СЗ 1 н/о н/о +19.5 +17.6 89 +23 +23 комфорт 1015.5 1002.0
05 18.06 СЗ 2 н/о н/о +20.3 +18.5 89 +25 +25 комфорт 1016.0 1002.5
06 18.06 С 2 н/о н/о +22.8 +21.0 90 +30 +30 очень
душно
1016.0 1002.6 +18.4 403
07 18.06 С 3 н/о н/о +22.8 +20.6 87 +30 +30 очень
душно
1016.3 1002.9
08 18.06 С 2 н/о н/о +24.6 +21.1 81 +31 +31 очень
душно
1016.0 1002.7
09 18.06 С 1 н/о н/о +26.1 +21.0 74 +33 +33 очень
душно
1015.8 1002.6
10 18.06 В 2 н/о н/о +27.0 +20.8 69
11 18.06 В 2 н/о н/о +28.7 +21.9 67
12 18.06 В 2 н/о н/о +29.3 +21.0 61
13 18.06 ЮВ 2 н/о н/о +30.1 +20.6 57
14 18.06 ЮВ 2 н/о н/о +30.5 +19.5 52
15 18.06 Ю 1 н/о н/о +29.8 +19.7 55
16 18.06 СЗ 1 н/о н/о +30.2 +20.4 56
17 18.06 С 1 н/о н/о +29.9 +18.6 51
18 18.06 штиль 0 н/о н/о +30.1 +18.2 49 +30.8

 

Местоположение метеостанции Казале-Монферрато (Италия): широта 45.13 долгота 8.45 высота над уровнем моря 119 м.

В архиве по умолчанию представлена погода в Казале-Монферрато за последнюю неделю. Архивные данные за месяц целиком и за предыдущие месяцы, начиная с января 2011 года, Вы можете получить, выбрав интересующий диапазон дат из раскрывающегося списка и нажав кнопку "Ввод!".


*Определитесь, кто Вы:
робот инопланетянин человек

Внимание! Время в таблицах - всемирное. Для получения местного времени необходимо прибавить поправку, которая равна 1 ч.

Смотрите также архив погоды в соседних городах и на ближайших метеорологических станциях:

Погода в Новара (Италия) (47 км)
Погода в Турине Брик Делла Крос (Италия) (58 км)
Погода в Аэропорту Мальпенса (Италия) (59 км)
Погода в Турине (Италия) (64 км)
Погода в Турине Венария (Италия) (65 км)
Погода в Милане (Италия) (73 км)
Погода на Пассо-деи-Джиови (Италия) (75 км)
Погода в Генуе (Италия) (85 км)
Погода в Стабио (Швейцария) (88 км)
Погода в Мондови (Италия) (97 км)

Пояснения к столбцам:

Ветер - указаны скорость ветра в м/с - средняя за 10 мин, порывы в срок и между сроками (в фигурных скобках) и направление, откуда дует ветер: С - северный, СВ - северо-восточный, В - восточный, ЮВ - юго-восточный, Ю - южный, ЮЗ - юго-западный, З - западный, СЗ - северо-западный.
Видимость - горизонтальная дальность видимости в метрах или километрах. При видимости от 1 до 10 км при отсутствии осадков обычно наблюдается дымка, при ухудшении видимости до 1 км и менее - туман. В сухую погоду видимость может ухудшаться дымом, пылью или мглою.
Явления - указаны атмосферные явления, наблюдавшиеся в срок или в последний час перед сроком; фигурными скобками обозначены явления, наблюдавшиеся между сроками (за 1-3 часа до срока); квадратными скобками обозначены град или гололедные отложения с указанием их диаметра в мм.
Облачность - указаны через наклонную черту общая и нижняя облачность в баллах и высота нижней границы облаков в метрах; квадратными скобками обозначены формы облаков: Ci - перистые, Cs - перисто-слоистые, Cc - перисто-кучевые, Ac - высококучевые, As - высокослоистые, Sc - слоисто-кучевые, Ns - слоисто-дождевые, Cu - кучевые, Cb - кучево-дождевые. Подробнее классификацию облаков см. в Атласе облаков (PDF).
T - Температура воздуха - температура, измеренная на высоте 2 м над землей.
Td - Температура точки росы - температура, при понижении до которой содержащийся в воздухе водяной пар достигнет насыщения.
f - Относительная влажность воздуха - влажноcть воздуха, измеренная на высоте 2 м над землей.
Te - Эффективная температура - температура, которую ощущает одетый по сезону человек в тени. Характеристика душности погоды. При расчете учитывается влияние влажности воздуха и скорости ветра на теплоощущения человека.
Tes - Эффективная температура на солнце - температура, которую ощущает человек, с поправкой на солнечный нагрев. Характеристика знойности погоды. Зависит от высоты солнца над горизонтом, облачности и скорости ветра. Ночью, в пасмурную погоду, а также при ветре 12 м/с и более поправка равна нулю.
P - Атмосферное давление - приведенное к уровню моря атмосферное давление.
Po - Атмосферное давление - измеренное на уровне метеостанции атмосферное давление.
Tmin - Минимальная температура - минимум температуры воздуха на высоте 2 м над землей.
Tmax - Максимальная температура - максимум температуры воздуха на высоте 2 м над землей.
R - Количество осадков - Количество выпавших осадков за период времени, мм. При наведении курсора мыши на число - период времени, за который выпало указанное количество осадков.
R24 - Количество осадков - Количество выпавших осадков за 24 часа, мм.
S - Снежный покров - Высота снежного покрова, см. При наведении курсора мыши на число - состояние снежного покрова и степень покрытия местности в баллах.